Regional Weather Roundup
Issued by NWS

Home | Current Version | Previous Version | Graphics & Text | Print | Product List | Glossary On
Versions: 1 2 3 4 5 6 7 8 9 10 11 12 13 14 15 16 17 18 19 20 21 22 23 24 25 26 27 28 29 30 31 32 33 34 35 36 37 38 39 40 41 42 43 44 45 46 47 48 49 50
000
ASUS43 KLSX 251259
RWRMO

WEATHER SUMMARY FOR MISSOURI
NATIONAL WEATHER SERVICE SPRINGFIELD MO
700 AM CST THU DEC 25 2014

NOTE: "FAIR" INDICATES FEW OR NO CLOUDS BELOW 12,000 FEET WITH NO
       SIGNIFICANT WEATHER AND/OR OBSTRUCTIONS TO VISIBILITY.
       CURRENT SKY AND/OR WEATHER CONDITIONS ARE NOT AVAILABLE FOR
       CHILLICOTHE AND FARMINGTON.

MOZ001>031-035>038-043-044-053-054-251400-
...NORTHERN AND WESTERN MISSOURI...

CITY           SKY/WX    TMP DP  RH WIND       PRES   REMARKS
KANSAS CTY INT PTCLDY    32  28  85 S14       29.78R WCI  22
KANSAS C DTWN  PTCLDY    33  27  78 S7        29.81R WCI  27
LEE`S SUMMIT   CLEAR     32  27  81 S13       29.82R WCI  22
ST JOSEPH      PTCLDY    32  27  81 S13       29.77R WCI  22
CHILLICOTHE      N/A     32  28  85 S6        29.83S WCI  26
KIRKSVILLE     CLEAR     30  28  92 S10       29.85R WCI  21

$$
MOZ066>068-077>081-088>096-101>105-251400-
...SOUTHWEST MISSOURI...

CITY           SKY/WX    TMP DP  RH WIND       PRES   REMARKS
SPRINGFIELD    CLEAR     31  27  85 S12       29.92R WCI  22
JOPLIN         CLEAR     36  28  73 S16       29.89R WCI  26

$$
MOZ032>034-039>042-045>050-055>058-069>072-251400-
...CENTRAL MISSOURI...

CITY           SKY/WX    TMP DP  RH WIND       PRES   REMARKS
COLUMBIA       CLEAR     30  27  88 S10       29.91R WCI  21
JEFFERSON CITY CLEAR     32  28  85 SE6       29.94R WCI  26
ROLLA          CLEAR     31  27  85 S12       29.93R WCI  22
SEDALIA        CLEAR     32  28  85 S13       29.88R WCI  22
WARRENSBURG    CLEAR     32  28  86 S9        29.86R WCI  24
OSAGE BEACH    CLEAR     30  27  86 S7        29.93R WCI  23

$$
MOZ051-052-059>065-251400-
...EAST CENTRAL MISSOURI...

CITY           SKY/WX    TMP DP  RH WIND       PRES   REMARKS
ST LOUIS INTL  PTCLDY    36  29  75 S6        29.99R
SPIRIT OF STL  CLEAR     30  27  88 CALM      29.97R
ST CHARLES     CLEAR     32  29  88 S6        29.98R WCI  26

$$
MOZ072>076-082>087-097>100-106>115-251400-
...SOUTH CENTRAL AND SOUTHEAST MISSOURI...

CITY           SKY/WX    TMP DP  RH WIND       PRES   REMARKS
CAPE GIRARDEAU CLEAR     34  31  88 S6        30.07R WCI  29
FARMINGTON     CLEAR     30  28  93 S7        30.01S WCI  23
POPLAR BLUFF   CLEAR     33  28  81 S6        30.06R WCI  28
WEST PLAINS    CLEAR     29  25  85 S3        29.99R

$$



USA.gov is the U.S. government's official web portal to all federal, state and local government web resources and services.